Back to catalog

HULIANWANG DIGUI-83

AliveCommunicationsPO
NORAD 65818·PAYLOAD·🇨🇳 China

Launched Sep 27, 2025 from Taiyuan Satellite Launch Center

Loading…

Next Passes (next 24 hours)

TLE

FreshSource: Space-Track

Epoch: Sep 14, 2026, 07:17 UTC

1 65818U 25220B   26257.30378983  .00000034  00000-0  43958-4 0  9992
2 65818  86.5053  13.8428 0001416  85.2343 274.8953 13.24411297 46710

Track HULIANWANG DIGUI-83 in real time with AllMySat

Download on the App Store